Location: *
(50.3194°N, 7.1067°E)
Time: 19:16:35
(UTC+00:00)

Meteor 1-21 Rocket - Pass Details

Date: 22 September 2019
Orbit: 834 x 907 km, 81.2° (Epoch: 22 October)

Event Time Altitude Azimuth Distance (km) Brightness Sun altitude
Rises 20:32:53 0° 346° (NNW) 3,528 8.2 -27.8°
Reaches altitude 10° 20:35:21 10° 345° (NNW) 2,590 7.4 -28.1°
Maximum altitude 20:41:15 77° 261° (W) 934 4.3 -28.8°
Enters shadow 20:41:36 74° 224° (SW) 945 4.3 -28.8°
